sat.trackr.live / text

‹ back to catalog

2025-313Q

NORAD 67262 · 2025-313Q

PAYLOAD ACTIVE UNKNOWN

§ Identity

Operator
Country
TBD
Launch date
2025-12-28
Launch site
VOSTO
Launch vehicle
Mass (kg)
RCS (m²)

External: N2YO · Heavens-Above · Gunter

§ Orbital elements

Epoch: 2026-05-25T03:59:03.086016Z

Period
94.52 min
Inclination
97.3941°
Eccentricity
0.0015856
Mean motion
15.23407161 rev/d
Perigee alt
484.7 km
Apogee alt
506.5 km
Semi-major
6,873.7 km
B*
4.6271e-4
RAAN
220.2541°
Arg perigee
87.3652°
Mean anomaly
272.9400°
Rev number
2,245

§ Raw data

2025-313Q1 67262U 25313Q   26145.16600794  .00010986  00000+0  46271-3 0  99942 67262  97.3941 220.2541 0015856  87.3652 272.9400 15.23407161 22457

JSON: /api/v1/satellites/67262 · /tle

For live sub-satellite position, see the globe view (requires WebGL).

§ Visibility from observer

Set your observer location to see the next 7 days of passes ≥ 10°. The values pass through the URL so the page stays shareable.

No JS? Fill the form by hand. The geolocation button needs JavaScript.